TimeEST,TemperatureF,Dew PointF,Humidity,Sea Level PressureIn,VisibilityMPH,Wind Direction,Wind SpeedMPH,Gust SpeedMPH,PrecipitationIn,Events,Conditions,WindDirDegrees,DateUTC
12:03 AM,50.0,48.2,94,29.79,0.0,SE,15.0,-,0.01,Fog,Fog,140,2014-01-06 05:03:00
12:56 AM,50.0,48.9,96,29.76,0.0,SSE,15.0,-,0.02,Fog-Rain,Light Rain,150,2014-01-06 05:56:00
1:56 AM,52.0,51.1,97,29.71,0.0,SSE,17.3,28.8,0.02,,Overcast,160,2014-01-06 06:56:00
2:56 AM,52.0,51.1,97,29.67,0.0,South,18.4,24.2,0.01,Rain,Light Rain,170,2014-01-06 07:56:00
3:56 AM,54.0,52.0,93,29.63,0.0,South,21.9,29.9,0.23,Rain,Heavy Rain,190,2014-01-06 08:56:00
4:54 AM,51.8,50.0,94,29.58,0.0,South,13.8,-,0.04,Fog,Fog,170,2014-01-06 09:54:00
4:56 AM,50.0,50.0,100,29.58,0.0,SSE,15.0,20.7,0.04,Fog,Fog,160,2014-01-06 09:56:00
5:07 AM,51.8,50.0,94,29.57,0.0,SSE,11.5,19.6,N/A,Fog,Fog,160,2014-01-06 10:07:00
5:56 AM,53.1,52.0,96,29.55,1.0,South,16.1,26.5,0.01,,Overcast,180,2014-01-06 10:56:00
6:56 AM,54.0,53.1,97,29.51,5.0,South,18.4,27.6,0.01,,Overcast,180,2014-01-06 11:56:00
7:30 AM,53.6,53.6,100,29.49,0.2,South,17.3,27.6,0.01,,Overcast,180,2014-01-06 12:30:00
7:56 AM,55.0,54.0,96,29.47,0.1,South,18.4,28.8,0.01,Fog-Rain,Light Rain,180,2014-01-06 12:56:00
8:33 AM,53.6,53.6,100,29.45,0.1,South,17.3,24.2,0.03,Fog-Rain,Light Rain,180,2014-01-06 13:33:00
8:47 AM,53.6,53.6,100,29.46,0.1,SSW,15.0,26.5,0.13,Fog-Rain,Heavy Rain,200,2014-01-06 13:47:00
8:53 AM,53.6,53.6,100,29.46,0.8,South,16.1,29.9,0.16,Rain,Rain,190,2014-01-06 13:53:00
8:56 AM,53.1,53.1,100,29.45,1.0,South,16.1,29.9,0.18,Rain,Rain,190,2014-01-06 13:56:00
9:17 AM,53.6,53.6,100,29.43,0.2,South,18.4,27.6,0.02,Fog,Fog,190,2014-01-06 14:17:00
9:56 AM,53.1,52.0,96,29.43,0.1,SSW,24.2,31.1,0.03,Rain,Light Rain,200,2014-01-06 14:56:00
10:17 AM,51.8,50.0,94,29.46,2.0,WSW,21.9,40.3,0.00,Rain,Light Rain,250,2014-01-06 15:17:00
10:22 AM,51.8,50.0,94,29.46,8.0,WSW,17.3,33.4,0.00,Rain,Light Rain,250,2014-01-06 15:22:00
10:39 AM,51.8,48.2,88,29.45,10.0,West,16.1,27.6,0.01,,Overcast,270,2014-01-06 15:39:00
10:56 AM,50.0,46.0,86,29.45,6.0,West,11.5,-,0.01,Rain,Light Rain,270,2014-01-06 15:56:00
11:23 AM,48.2,46.4,93,29.43,2.0,West,4.6,-,0.06,Rain,Rain,260,2014-01-06 16:23:00
11:48 AM,48.2,46.4,93,29.41,8.0,West,6.9,-,0.07,Rain,Light Rain,270,2014-01-06 16:48:00
11:56 AM,48.9,46.9,93,29.41,10.0,West,5.8,-,0.07,Rain,Light Rain,260,2014-01-06 16:56:00
12:56 PM,46.0,39.9,79,29.42,5.0,WNW,11.5,20.7,0.00,Rain,Light Rain,300,2014-01-06 17:56:00
1:56 PM,43.0,37.9,82,29.45,2.0,West,12.7,-,0.05,Rain,Rain,270,2014-01-06 18:56:00
2:34 PM,42.8,37.4,81,29.42,7.0,West,12.7,-,0.03,Rain,Light Rain,280,2014-01-06 19:34:00
2:56 PM,39.9,36.0,86,29.46,4.0,West,16.1,-,0.04,Rain,Light Rain,270,2014-01-06 19:56:00
3:14 PM,39.2,35.6,87,29.45,4.0,West,16.1,19.6,0.02,Rain,Light Rain,260,2014-01-06 20:14:00
3:30 PM,39.2,35.6,87,29.45,7.0,West,11.5,-,0.03,Rain,Light Rain,270,2014-01-06 20:30:00
3:56 PM,39.0,35.1,86,29.46,10.0,West,6.9,-,0.03,,Overcast,280,2014-01-06 20:56:00
4:56 PM,39.0,33.1,79,29.47,10.0,WNW,9.2,-,N/A,,Overcast,290,2014-01-06 21:56:00
5:56 PM,37.0,26.1,65,29.51,10.0,NW,15.0,-,N/A,,Overcast,310,2014-01-06 22:56:00
6:56 PM,35.1,21.0,57,29.53,10.0,WNW,11.5,21.9,N/A,,Scattered Clouds,300,2014-01-06 23:56:00
7:56 PM,35.1,18.0,50,29.56,10.0,WNW,18.4,26.5,N/A,,Mostly Cloudy,290,2014-01-07 00:56:00
8:56 PM,34.0,17.1,50,29.58,10.0,WNW,15.0,19.6,N/A,,Mostly Cloudy,290,2014-01-07 01:56:00
9:56 PM,33.1,18.0,54,29.59,10.0,West,16.1,24.2,N/A,,Mostly Cloudy,270,2014-01-07 02:56:00
10:56 PM,28.9,10.9,47,29.62,10.0,West,18.4,28.8,N/A,,Scattered Clouds,270,2014-01-07 03:56:00
11:56 PM,26.1,10.0,51,29.64,10.0,West,21.9,34.5,N/A,,Partly Cloudy,260,2014-01-07 04:56:00